Location: *
(49.4189°N, 0.2331°E)
Time: 15:18:42
(UTC+00:00)

Daily predictions for brighter satellites

Satellite Brightness Start Highest point End
(mag) Time Altitude Azimuth Time Altitude Azimuth Time Altitude Azimuth
Unknown 3.7 17:29:39 10° WSW 17:33:46 73° SSE 17:37:55 10° ENE
YAOGAN 6 3.3 17:31:21 10° SE 17:34:39 32° ENE 17:37:55 10° N
Unknown 3.2 17:31:53 10° WNW 17:34:56 54° NNE 17:38:01 10° E
Cosmos 1758 3.4 17:33:24 10° S 17:37:23 85° WNW 17:41:23 10° N
Unknown 3.6 17:33:33 10° WSW 17:37:41 77° SSE 17:41:50 10° ENE
Unknown 3.7 17:33:57 10° WSW 17:38:05 77° SSE 17:42:15 10° ENE
Cosmos 1844 Rocket 2.8 17:33:23 10° SSW 17:38:56 61° ESE 17:44:31 10° NE
Unknown 3.6 17:35:43 10° WSW 17:39:51 81° SSE 17:44:01 10° ENE
FengYun 1-2 T 4.4 17:36:12 10° SE 17:41:42 56° ENE 17:47:10 10° N
Unknown 3.6 17:39:01 10° WSW 17:43:10 83° SSE 17:47:20 10° ENE
Unknown 3.6 17:39:25 10° WSW 17:43:34 82° SSE 17:47:43 10° ENE
Unknown 2.5 17:41:52 10° WNW 17:44:31 78° SSW 17:47:11 10° ESE
Cosmos 1606 Rocket 3.6 17:40:14 10° S 17:44:33 59° E 17:48:51 10° NNE
Cosmos 724 4.5 17:38:31 10° SW 17:44:40 88° NW 17:50:45 10° NE
Unknown 3.6 17:40:36 10° WSW 17:44:44 83° SSE 17:48:54 10° ENE
Meteor 2-12 Rocket 4.5 17:40:00 10° N 17:46:12 84° E 17:52:23 10° S
Unknown 3.6 17:43:44 10° WSW 17:47:54 84° SSE 17:52:03 10° ENE
Envisat 3.0 17:43:53 10° SSE 17:48:57 75° ENE 17:54:03 10° N
BREEZE-M DEB (TANK) 4.5 17:45:38 10° SSW 17:48:59 17° SSE 17:51:03 10° ESE
Meteor 1-16 Rocket 4.4 17:44:26 10° SSE 17:49:42 46° E 17:54:51 10° NNE
Unknown 3.6 17:47:12 10° WSW 17:51:22 89° SSE 17:55:27 10° ENE
Cosmos 1758 Rocket 4.0 17:47:01 10° NNW 17:51:27 71° W 17:55:54 10° S
Unknown 3.6 17:48:52 10° WSW 17:53:01 90° SE 17:57:02 11° ENE
Cosmos 1908 4.3 17:51:31 10° SE 17:54:41 24° E 17:57:52 10° NE
Unknown 3.6 17:50:32 10° WSW 17:54:41 88° NNW 17:58:39 11° ENE
Cosmos 1461 3.9 17:51:19 10° NNW 17:54:51 28° NE 17:58:04 12° E
Unknown 3.6 17:52:12 10° WSW 17:56:21 87° NNW 18:00:15 12° ENE
Lacrosse 5 rocket 2.6 17:53:49 10° WNW 17:57:17 37° SW 18:00:56 10° SSE
FALCON 9 DEB 3.8 17:53:57 10° WNW 17:57:19 46° N 18:00:08 14° ENE
ASTEX 1 3.5 17:53:08 10° NNE 17:58:02 57° E 18:02:54 10° S
Unknown 3.6 17:55:32 10° WSW 17:59:41 84° NNW 18:03:27 13° ENE
Cosmos 1356 4.1 17:56:46 10° SSE 17:59:53 33° E 18:03:02 10° NNE
Cosmos 2278 Rocket 3.2 17:56:05 10° SSE 18:00:36 25° ESE 18:05:08 10° NE
Unknown 3.7 17:57:14 10° WSW 18:01:24 83° NNW 18:05:06 13° ENE
Cosmos 1939 Rocket 3.7 17:58:00 10° SE 18:01:28 29° ENE 18:05:00 10° N
Unknown 3.6 17:59:14 10° WNW 18:02:34 47° N 18:05:05 16° E
Unknown 3.7 17:58:52 10° WSW 18:03:02 82° NNW 18:06:39 13° ENE
Unknown 3.8 18:00:44 10° WNW 18:04:10 46° N 18:06:45 16° ENE
Cosmos 1470 4.1 18:00:24 10° SSW 18:04:13 44° WNW 18:08:04 10° N
Unknown 3.7 18:00:30 10° WSW 18:04:39 82° NNW 18:08:12 14° ENE
Cosmos 1844 3.7 17:59:18 10° SSW 18:04:59 76° ESE 18:10:47 10° NNE
Unknown 3.7 18:00:55 10° WSW 18:05:04 80° NNW 18:08:36 14° ENE
ATLAS 5 CENTAUR R/B 2.1 18:01:06 10° SW 18:05:24 64° NW 18:10:19 10° NE
Unknown 3.7 18:03:39 10° WSW 18:07:48 81° NNW 18:11:14 15° ENE
SKYMED 2 3.5 18:03:36 10° NNE 18:07:57 66° ESE 18:12:16 10° S
Cosmos 1328 3.7 18:04:46 10° N 18:08:45 63° ENE 18:12:40 10° SSE
Unknown 3.7 18:07:02 10° WSW 18:11:11 79° NNW 18:14:29 16° ENE
Unknown 3.7 18:08:41 10° WSW 18:12:50 78° NNW 18:16:03 16° ENE
YAOGAN 1 2.5 18:09:15 10° SSE 18:13:34 73° ENE 18:17:54 10° N
Unknown 3.7 18:10:35 10° WSW 18:14:44 74° NNW 18:17:53 17° ENE
ATLAS CENTAUR R/B 4.0 18:13:19 10° NNW 18:15:17 12° N 18:17:13 10° NNE
Unknown 3.7 18:11:58 10° WSW 18:16:07 76° NNW 18:19:12 17° ENE
Falcon 9 debris 3.5 18:13:38 10° WNW 18:17:01 51° N 18:18:58 22° E
Unknown 3.7 18:13:39 10° WSW 18:17:47 74° NNW 18:20:49 18° ENE
Cosmos 292 Rocket 3.8 18:15:36 10° S 18:20:12 54° ESE 18:24:51 10° NNE
Unknown 3.7 18:17:01 10° WSW 18:21:09 72° NNW 18:24:03 19° ENE
Unknown 3.8 18:18:42 10° WSW 18:22:50 71° NNW 18:25:40 20° ENE
CSL-04 Rocket 3.7 18:18:19 10° SSE 18:23:52 89° WSW 18:29:24 10° NNW
CZ-4 R/B 1.8 18:20:10 10° S 18:24:19 68° WSW 18:28:33 10° NNW
Unknown 3.8 18:20:22 10° WSW 18:24:30 71° NNW 18:27:15 20° ENE
USA 238 DEB 4.5 18:19:36 10° SSE 18:25:02 27° ESE 18:28:52 16° ENE
Cosmos 1726 Rocket 4.0 18:21:38 10° SSW 18:26:00 66° W 18:30:23 10° N
Cosmos 2263 Rocket 4.4 18:21:39 10° W 18:26:01 22° NW 18:30:23 10° N
Unknown 3.8 18:22:02 10° WSW 18:26:11 70° NNW 18:28:52 21° ENE
Unknown 3.6 18:23:45 10° WNW 18:27:12 52° N 18:28:48 27° ENE
Shenzhou-11 Module 3.6 18:26:49 10° SW 18:28:59 21° S 18:29:46 18° SSE
Unknown 3.8 18:25:22 10° W 18:29:29 68° NNW 18:32:02 22° ENE
Lacrosse 5 2.1 18:24:53 10° NW 18:29:53 55° NNE 18:32:48 24° E
Unknown 3.8 18:26:51 10° W 18:30:59 66° NNW 18:33:28 23° ENE
Cosmos 1726 2.0 18:27:39 10° S 18:31:18 90° SSE 18:34:59 10° N
Unknown 3.9 18:27:20 10° W 18:31:27 64° NNW 18:33:54 23° ENE
Cosmos 2228 3.8 18:27:15 10° SSW 18:31:32 55° WNW 18:35:50 10° N
Ariane Rocket 3.1 18:26:35 10° SE 18:31:34 57° ENE 18:36:34 10° N
NOAA 11 4.1 18:26:20 10° SSE 18:31:43 66° ENE 18:37:07 10° N
Cosmos 1242 Rocket 3.3 18:28:55 10° NNW 18:32:33 57° W 18:36:10 10° S
Unknown 3.9 18:28:57 10° W 18:33:04 63° NNW 18:35:29 24° ENE
Unknown 3.9 18:32:01 10° W 18:36:09 64° NNW 18:38:25 25° ENE
CZ-2D R/B 3.1 18:35:30 10° SSE 18:39:20 79° ENE 18:43:14 10° N
Unknown 3.9 18:35:21 10° W 18:39:28 63° NNW 18:41:36 27° ENE
ARGOS 4.2 18:38:25 24° E 18:39:37 26° ENE 18:44:02 10° N
Cosmos 1833 Rocket 2.6 18:34:05 10° NNW 18:39:42 68° ENE 18:44:18 16° SE
Unknown 3.9 18:37:05 10° W 18:41:12 62° NNW 18:43:15 28° ENE
Cosmos 2058 Rocket 3.3 18:37:00 10° SSW 18:41:20 70° W 18:45:42 10° N
Cosmos 921 Rocket 3.6 18:37:21 10° SSW 18:41:49 62° WNW 18:46:16 10° NNE
Unknown 3.9 18:38:42 10° W 18:42:48 62° NNW 18:44:48 28° ENE
Unknown 3.9 18:39:02 10° W 18:43:05 59° NNW 18:45:00 29° ENE
Unknown 3.9 18:40:24 10° W 18:44:31 61° NNW 18:46:26 29° ENE
Cosmos 2084 4.3 18:41:12 10° WSW 18:45:38 51° NW 18:49:25 13° NE
Cosmos 1339 Rocket 4.3 18:41:13 10° S 18:47:17 77° E 18:53:27 10° NNE
Unknown 4.0 18:44:35 10° W 18:48:34 53° N 18:50:11 32° NE
SPOT 3 Rocket 4.2 18:48:34 30° E 18:49:56 35° ENE 18:54:39 10° N
Cosmos 1777 Rocket 4.2 18:45:08 10° NNW 18:50:22 74° WSW 18:55:32 10° SSE
NOSS 3-2 (A) 4.1 18:45:46 10° S 18:50:42 30° ESE 18:51:20 29° ESE
Unknown 4.0 18:47:01 10° W 18:51:07 59° NNW 18:52:46 33° NE
Unknown 3.9 18:47:55 10° WNW 18:51:33 48° N 18:52:29 38° NE
HJ-1C 3.3 18:51:33 45° SE 18:52:23 67° ENE 18:55:45 10° N
Unknown 4.0 18:48:45 10° W 18:52:51 58° NNW 18:54:24 34° NE
Unknown 4.0 18:50:24 10° W 18:54:30 58° N 18:55:59 35° NE
NOSS 3-3 (A) 4.5 18:47:37 10° NW 18:54:54 67° NE 18:59:43 27° ESE
NOSS 3-3 (C) 4.5 18:47:42 10° NW 18:55:00 67° NE 18:59:47 27° ESE
Cosmos 1459 Rocket 4.2 18:49:31 10° N 18:55:29 47° ENE 18:58:57 24° SE
USA 116 3.9 18:52:36 10° N 18:55:39 53° WNW 18:58:51 10° SSW
COSMO-SKYMED 1 3.8 18:51:52 10° N 18:55:59 43° WNW 19:00:05 10° SW
Unknown 4.0 18:52:03 10° W 18:56:08 57° N 18:57:33 36° NE
Cosmos 1703 4.5 18:52:23 10° NNW 18:56:09 43° W 18:59:52 10° SSW
Unknown 4.0 18:53:44 10° W 18:57:49 57° NNW 18:59:10 37° NE
Cosmos 2058 3.3 18:54:18 10° N 18:58:09 42° ENE 18:58:09 42° ENE
Cosmos 1605 Rocket 4.2 18:52:09 10° NNW 18:58:21 72° W 19:04:26 10° S
Gbstr 26 Del rocket 4.1 18:54:07 10° WNW 19:00:14 81° SSW 19:04:04 31° ESE
Unknown 4.0 18:57:06 10° W 19:01:12 56° N 19:02:24 39° NE
Cosmos 2082 Rocket 2.1 18:56:06 10° NNW 19:01:50 70° ENE 19:04:38 31° SE
Starlink (trailer) 4.0 18:58:46 10° W 19:02:51 55° N 19:03:59 40° NE
SJ 16-02 2.9 18:59:56 10° N 19:02:24 21° NNE 19:02:24 21° NNE
Abrixas rocket 4.0 19:01:29 10° SW 19:02:52 20° SSW 19:02:52 20° SSW
Unknown 4.0 19:00:26 10° W 19:04:30 55° N 19:05:34 41° NE
Unknown 3.9 19:00:59 10° WNW 19:04:43 48° N 19:05:15 44° NNE
Unknown 4.1 19:02:03 10° W 19:06:08 54° N 19:07:07 42° NE
COSMOS 2406 4.4 19:00:50 10° NW 19:06:14 42° WSW 19:11:36 10° S
Resurs 01 Rocket 3.5 19:09:04 17° NNE 19:09:04 17° NNE 19:10:36 10° NNE
H-2A R/B 2.5 19:06:52 40° E 19:07:34 42° ENE 19:12:39 10° N
SJ-6B 3.9 19:08:58 30° NNE 19:08:58 30° NNE 19:11:16 10° N
Cosmos 1727 Rocket 3.8 19:02:35 10° S 19:08:45 78° E 19:14:57 10° NNE
Unknown 4.0 19:07:42 10° WNW 19:10:36 38° SW 19:10:36 38° SW
Unknown 3.9 19:07:34 10° WNW 19:11:22 48° N 19:11:44 47° NNE
Unknown 4.1 19:08:32 10° W 19:12:36 53° N 19:13:18 46° NNE
Unknown 4.1 19:08:47 10° W 19:12:51 53° N 19:13:33 47° NNE
Unknown 4.0 19:09:28 10° W 19:13:32 53° N 19:14:12 47° NNE
Okean 3 Rocket 4.4 19:09:52 10° N 19:13:09 36° NE 19:13:09 36° NE
Cosmos 1802 Rocket 4.1 19:09:11 10° N 19:15:32 55° ENE 19:17:49 38° SE
Unknown 4.0 19:13:24 10° W 19:17:27 52° N 19:17:57 49° NNE
Unknown 4.0 19:13:48 10° W 19:17:52 52° N 19:18:21 49° NNE
Cosmos 2173 Rocket 3.9 19:12:36 10° N 19:18:54 68° ENE 19:22:02 30° SSE
Unknown 4.0 19:15:36 10° W 19:19:40 52° N 19:20:03 49° NNE
Unknown 4.1 19:18:55 10° W 19:22:59 51° N 19:23:14 50° N
Cosmos 1844 Rocket 4.5 19:18:20 10° WSW 19:23:15 30° NW 19:28:10 10° NNE
Unknown 4.1 19:19:18 10° W 19:23:21 51° N 19:23:36 51° N
SJ-11-01 4.1 19:22:27 48° SSE 19:23:47 87° ENE 19:28:31 10° NNW
Unknown 4.1 19:20:30 10° W 19:24:34 51° N 19:24:45 51° N
Unknown 4.1 19:23:39 10° W 19:27:42 51° N 19:27:46 51° N
In-Cosmos 22 Rocket 4.0 19:24:11 10° N 19:29:34 73° ENE 19:30:27 60° SE
Unknown 4.2 19:27:09 10° W 19:31:06 51° N 19:31:06 51° N
MOS 1 4.4 19:27:18 18° S 19:31:39 73° WSW 19:37:20 10° NNW
Cosmos 1898 Rocket 3.6 19:27:30 10° NNW 19:32:33 59° NE 19:32:33 59° NE
Unknown 4.2 19:28:49 10° W 19:32:41 50° NNW 19:32:41 50° NNW
Cosmos 1461 3.6 19:30:11 10° NW 19:34:08 48° WSW 19:34:29 46° SW
Unknown 4.2 19:30:30 10° W 19:34:18 50° NNW 19:34:18 50° NNW
FALCON 9 DEB 4.4 19:31:07 10° WNW 19:33:29 40° WNW 19:33:29 40° WNW
ADEOS Rocket 3.5 19:27:46 10° NNE 19:35:26 58° E 19:42:35 10° S
Unknown 4.3 19:32:10 10° W 19:35:54 49° NNW 19:35:54 49° NNW
CZ-2C R/B 3.6 19:37:01 49° NE 19:37:01 49° NE 19:42:10 10° N
Cosmos 1725 Rocket 4.1 19:31:12 10° N 19:37:15 53° ENE 19:37:15 53° ENE
Unknown 4.4 19:35:31 10° WNW 19:39:06 47° NNW 19:39:06 47° NNW
Cosmos 2100 Rocket 3.9 19:33:33 10° N 19:39:48 82° W 19:43:19 27° S
Cosmos 2084 Rocket 3.7 19:35:37 10° NW 19:39:27 65° NW 19:39:27 65° NW
Cosmos 1000 Rocket 4.3 19:34:41 10° S 19:40:50 75° E 19:47:06 10° NNE
Cosmos 1812 Rocket 4.2 19:36:54 10° SSW 19:41:15 56° WNW 19:45:40 10° N
Unknown 4.4 19:37:15 10° WNW 19:40:45 47° NNW 19:40:45 47° NNW
Unknown 4.5 19:38:52 10° WNW 19:42:18 46° NNW 19:42:18 46° NNW
Cosmos 2278 Rocket 2.6 19:38:37 10° SW 19:44:14 63° WNW 19:49:55 10° NNE
ATLAS 5 CENTAUR R/B 3.9 19:47:26 10° WNW 19:51:04 22° NNW 19:53:19 17° NNE
ATLAS CENTAUR R/B 3.8 19:52:53 10° NNW 19:55:00 17° N 19:55:00 17° N
Cosmos 2016 Rocket 3.9 19:56:21 10° N 20:02:38 86° W 20:03:18 73° S
SL-08 R/B 4.4 20:02:04 10° N 20:07:52 80° N 20:07:52 80° N
Lacrosse 5 2.9 20:08:00 10° WNW 20:12:00 42° WSW 20:12:00 42° WSW
USA 238 DEB 3.7 20:08:33 10° SW 20:15:18 80° NW 20:16:23 65° NNE
USA 238 3.6 20:08:40 10° SW 20:15:24 80° NW 20:16:26 66° NNE
Cosmos 2061 Rocket 4.3 20:12:20 10° NNW 20:18:32 64° W 20:19:19 58° SW
ARGOS 3.7 20:19:56 57° W 20:19:56 57° W 20:24:54 10° NNW
NOSS 3-2 (A) 4.4 20:35:07 10° SW 20:38:49 40° WSW 20:38:49 40° WSW
SJ 16-02 3.8 20:38:03 10° NNW 20:39:24 19° NW 20:39:24 19° NW
Resurs 01 Rocket 4.2 20:46:39 17° NNW 20:46:39 17° NNW 20:47:47 10° NNW
Cosmos 2082 Rocket 4.1 20:41:05 10° NW 20:45:22 22° W 20:46:31 21° WSW
H-2A R/B 3.6 20:47:31 32° W 20:47:31 32° W 20:51:56 10° NNW
